Starlink 11325

operational
NORAD ID: 61538 Int'l Des: 2024-184 Owner: SPXS Country: US Constellation: starlink
LEOCIRCULAR

About Starlink 11325

Description loading...

Live Position

Loading 3D Globe...

Upcoming Passes

Altitude History

Altitude vs Time

uPlot chart will show altitude changes over time

Two-Line Element Set

1 61538U 24184G 25312.73621777 .00003180 00000-0 31106-4 0 9992
2 61538 53.1584 112.2702 0002964 112.3352 247.7980 15.69716977 61422
Epoch: Nov 8, 2025 • Age: 41 hours

Current Status

Altitude 367.9 km
Velocity 7.69 km/s
Sub-Earth Point -22.92°S, 126.45°W
Launch Date Oct 15, 2024
Age 1 years
Type internet

Technical Details

Classification Payload
Mass 960.00 kg
Dry Mass 910.00 kg
Total Mass 960.00 kg
Length 0.30 m
Diameter 4.10 m
Span 29.00 m
Shape Box + pan
Manufacturer SPXS
Bus Type Starlink V2MD
Phase Status In Orbit
Owner/State SPXS/US

Large Constellations

Loading constellations...